Regional Weather Roundup
Issued by NWS Cleveland, OH

Home | Current Version | Previous Version | Graphics & Text | Print | Product List | Glossary On
Versions: 1 2 3 4 5 6 7 8 9 10 11 12 13 14 15 16 17 18 19 20 21 22 23 24 25 26 27 28 29 30 31 32 33 34 35 36 37 38 39 40 41 42 43 44 45 46 47 48 49 50
000
ASUS41 KCLE 161600
RWRCLE
OHIO REGIONAL WEATHER ROUNDUP
NATIONAL WEATHER SERVICE WILMINGTON, OH
1200 PM EDT TUE SEP 16 2014

NOTE: "FAIR" INDICATES FEW OR NO CLOUDS BELOW 12,000 FEET WITH NO
SIGNIFICANT WEATHER AND/OR OBSTRUCTIONS TO VISIBILITY.

OHZ001>008-015>018-024>027-034-035-043-044-161700-
   NORTHWEST OHIO

CITY           SKY/WX    TMP DP  RH WIND       PRES   REMARKS
DEFIANCE       MOSUNNY   60  48  64 N6        30.18F
FINDLAY        PTSUNNY   61  49  64 N5        30.16F
TOLEDO EXPRESS SUNNY     60  48  64 N5        30.17F
TOLEDO METCALF PTSUNNY   60  47  61 NW7       30.17F
LIMA           PTSUNNY   60  51  72 N7        30.17F
$$

OHZ009>014-019>023-028>033-038-089-161700-
   NORTHEAST OHIO

CITY           SKY/WX    TMP DP  RH WIND       PRES   REMARKS
CLE-HOPKINS    PTSUNNY   62  53  72 N8        30.15F
CLE-LAKEFRONT  CLOUDY    61  51  70 N7        30.13F
CUY CO. ARPT   PTSUNNY   61  54  77 N12       30.14S
LORAIN-ELYRIA  CLOUDY    63  52  67 N6        30.15F
ASHTABULA      MOSUNNY   61  47  59 VRB6      30.13F
AKRON-CANTON   PTSUNNY   61  52  72 N3        30.13F HAZE
WOOSTER        NOT AVBL
MANSFIELD      PTSUNNY   61  53  75 VRB6      30.15F
YOUNGSTOWN     PTSUNNY   60  52  74 NW5       30.13F
$$

OHZ042-051>053-060>062-070>072-077>081-161700-
  SOUTHWEST OHIO

CITY           SKY/WX    TMP DP  RH WIND       PRES   REMARKS
CINC-COVINGTON CLOUDY    58  51  78 N9        30.16S
CINC-LUNKEN    CLOUDY    60  51  72 NE10      30.17F
HAMILTON       CLOUDY    59  51  75 VRB3      30.19S
DAYTON         NOT AVBL
WRIGHT-PAT AFB NOT AVBL
DAYTON GENERAL CLOUDY    57  51  80 VRB5      30.17S
WILMINGTON     CLOUDY    56  50  80 VRB3      30.16F
$$

OHZ036-037-039>041-045>050-054>059-063>069-073>076-082>088-161700-
  CENTRAL AND SOUTHEAST OHIO

CITY           SKY/WX    TMP DP  RH WIND       PRES   REMARKS
COLUMBUS       CLOUDY    59  50  72 CALM      30.16F
OSU AIRPORT    CLOUDY    58  50  75 SE3       30.16F
BOLTON FIELD   NOT AVBL
RICKENBACK AFB NOT AVBL
NEWARK         CLOUDY    59  50  72 N6        30.15F
MARION         CLOUDY    59  50  72 NE6       30.16F
LANCASTER      CLOUDY    59  50  72 VRB3      30.16F
ZANESVILLE     CLOUDY    60  50  69 N7        30.15S
NEW PHILLY     CLOUDY    59  53  80 CALM      30.14F
$$


USA.gov is the U.S. government's official web portal to all federal, state and local government web resources and services.